Погода Старое Баршино

Погода Старое Баршино : погода сейчас, прогноз погоды и архив. Всё, что Вы хотите узнать о погоде Старое Баршино!

Поиск расширенной информации на нашем сайте:

Другие новости

Новости СМИ2

Главная страница сайта

Новости сайта

03.07.2017

Напоминаем, что на нашем специализированном сайте Метеоцентр.Азия вы можете получить высокодетализированные автоматические прогнозы погоды по пунктам России, СНГ и мира в авиационном формате (включающие направление и скорость ветра, видимость, явления погоды, количество и форму облачности, нижнюю и верхнюю границу облачности).

Рекомендуем: ищете офис? Бизнес центр Капитал Тауэр в районе 1-я Тверская-Ямская улица с фотками и планировками

Погода Старое Баршино - сегодня

Время (UTC), дата Ветер
(°,м/с) 
Видим.   Явления Облачность Т
(°С)
Тd
(°С)
f(%) Тe
(°С)
Pmin
(гПа)
dP
(гПа)
Po
(мм)
O2
(г/м3)
Тmin Tmax R s Состояние
почвы
18 14.10.17 140 (ЮВ) н/о    10/10 600 м 
[Sc]
+7.8 +5.8 87 +8  1012.4  1.8  728  284    +12.4  0.0     
21 14.10.17 200 (Ю) н/о  {дождь}  5/5 600 м 
[Sc]
+5 +2.8 86 +3  1013.3  0.2  728  288           
00 15.10.17 200 (Ю) н/о  {дождь}  8/5 600 м средняя 
[Sc|Ac und]
+3.7 +1.4 85 +2  1014.8  1.2  729  290           
03 15.10.17 180 (Ю) 10 км    5/3 600 м средняя 
[Sc|Ac und]
+2.3 +0.1 85 +2  1016.2  1.1  730  292         
06 15.10.17 180 (Ю) 10 км    4/0 средняя 
[Ac und]
+9.6 +3.6 66 +10  1015.7  0.8  731  284  +2       
09 15.10.17 230 (ЮЗ) 10 км    8/4 1000 м средняя 
[Cu med, cong|Ac und]
+14.3 +0.4 39 +14  1014.3  -0.9  730  279           
12 15.10.17 250 (З) 10 км    6/4 1000 м средняя 
[Sc|Ac und]
+13.7 +1.5 43 +14  1014.3  730  280           
15 15.10.17 250 (З) н/о    4/4 600 м 
[Sc]
+9.5 +3.2 65 +11  1015  730  284    +15.2       
18 15.10.17 тихо ()   н/о    ясно 
+3.3 +0.7 83 +3  1017.8  1.8  731  291    +15.2       
21 15.10.17 тихо ()   н/о    ясно 
+2.3 -0.2 84 +2  1019  732  292           
00 16.10.17 тихо ()   н/о    4/0 средняя 
[Ac und]
+1.9 -0.6 83 +2  1019  732  293           
03 16.10.17 110 (В) 10 км    8/0 средняя, верхняя 
[Ac und|Ci fib]
-0.5 -1.7 92 1017.8  -1.5  731  295           
06 16.10.17 140 (ЮВ) 10 км    5/0 средняя, верхняя 
[Ac und|Ci sp]
+11.6 +1.5 50 +13  1015.4  -0.6  730  282  -0.8         
09 16.10.17 140 (ЮВ) 10 км    5/0 средняя, верхняя 
[Ac und|Ci sp]
+16 +0.2 34 +17  1013.5  -1.1  730  278           
12 16.10.17 110 (В) 10  10 км    8/0 средняя, верхняя 
[Ac und|Ci fib]
+14 +2.1 44 +12  1013.6  -0.2  729  279           
15 16.10.17 090 (В) н/о    5/5 600 м 
[Sc]
+9.5 +1.5 57 +11  1014.5  0.2  730  284    +17.7       
18 16.10.17 090 (В) н/о    8/8 600 м 
[Sc]
+7.7 +0 58 +8  1014.5  -0.3  729  286    +17.7       
21 16.10.17 090 (В) н/о    3/3 600 м 
[Sc]
+5.5 +0 68 +6  1013.6  -1.2  728  288           
00 17.10.17 тихо ()   н/о    ясно 
+3.8 -2.1 65 +4  1013.3  -0.5  728  290           
03 17.10.17 140 (ЮВ) 10 км    8/4 600 м средняя 
[Sc|Ac und]
+5.5 +3.6 88 +6  1012.6  -0.4  713  281           
06 17.10.17 180 (Ю) 10 км    9/9 600 м 
[Sc]
+11 +4.8 66 +12  1011  -0.7  727  281  +3         
09 17.10.17 140 (ЮВ) 10 км    9/9 600 м 
[Sc]
+14 +5.3 56 +13  1009.6  -0.9  727  278           
12 17.10.17 140 (ЮВ) 10 км    10/10 600 м 
[Sc]
+13.2 +7.7 69 +13  1008.5  -1.2  726  278           
15 17.10.17 140 (ЮВ) н/о    3/3 600 м 
[Sc]
+9.5 +7.6 88 +10  1007.7  -1.2  725  281    +15.8       
18 17.10.17 140 (ЮВ) н/о    10/10 600 м 
[Sc]
+8.5 +7.4 93 +9  1006  -1.8  723  281    +15.8       
Время (UTC), дата Ветер
(°,м/с) 
Видим.   Явления Облачность Т
(°С)
Тd
(°С)
f(%) Тe
(°С)
Pmin
(гПа)
dP
(гПа)
Po
(мм)
O2
(г/м3)
Тmin Tmax R s Состояние
почвы

Для получения пояснительной информации подведите курсор к названию столбца.

ПОГОДА Старое Баршино - архив

Всё, что Вы хотите узнать о погоде Старое Баршино - удобно и подробно!

Выберите нужную дату (начиная с 1 января 2015* года) и нажмите кнопку "Найти".
Будут отображены архивные сводки погоды по пункту Старое Баршино, начиная с указанной даты.


Отображать данные в формате CSV (для использования в таблицах Excel)


Внимание! Наш архив погоды предназначен исключительно для личного некоммерческого использования в познавательных целях. Если Вам необходимы официальные справки о состоянии погоды (для производственных, юридических, коммерческих и т.п. целей), обращайтесь в органы Росгидромета.

*Примечание: данная дата относится к архиву по метеостанциям СССР (Россия, СНГ, Балтия).
Архив по метеостанциям Зарубежной Европы и Азии (кроме Китая) хранится 10 дней, по другим регионам земного шара (Китай, Африка, Америка, Австралия, Океания) - 1 день.

Старое Баршино - район местоположения метеостанции


Название, широта, долгота, высота метеостанции:
Старое Баршино 49.68°ш. 69.52°д. 357 м над ур. моря [Казахстан]

Дополнительная информация

В oтличие oт бoльшинства пoгoдных сайтoв мы публикуем пoдрoбную метеoинфoрмацию в детальнoм прoфессиoнальнoм фoрмате.

Характеристики температуры и влажнoсти вoздуха измеряются на высoте 2 м в тени вдали oт зданий и деревьев.
Скoрoсть ветра измеряется на высoте 10 м (на урoвне рoста челoвека скoрoсть ветра ниже в 1.5-2 раза). Если метеoстанция нахoдится в гoрoде или в лесу, тo скoрoсть ветра занижена на 2-4 м/с пo сравнению с oткрытым местoм. Скoрoсть ветра над акватoриями крупных рек и oзёр, а также на вершинах хoлмoв на 2-5 м/с выше, чем в oбычных услoвиях.
Атмoсфернoе давление в разных тoчках местнoсти мoжет значительнo oтличаться oт давления на метеoстанции, в зависимoсти oт услoвий рельефа (при пoдъёме на 10 м давление пoнижается примернo на 1 мм рт.ст.).